CW0621 Weather Reports


Display with metric or nautical units.
time (UTC)temp
F
wind
direction
speed
MPH
gust
MPH
rain 1hr
in
rain 24hr
in
rain mn
in
humidity
%
barometer
mb
20260509124557 53 176 0.0 0.0 0.00 0.00 0.00 90 1005.5
20260509123026 52 45 0.0 0.0 0.00 0.00 0.00 92 1005.7
20260509121559 52 255 0.0 0.0 0.00 0.00 0.00 93 1005.7
20260509120025 51 219 0.0 0.0 0.00 0.00 0.00 94 1005.8
20260509114548 51 174 0.0 0.0 0.00 0.00 0.00 95 1005.7
20260509113012 51 328 0.0 0.0 0.00 0.00 0.00 95 1005.9
20260509111542 51 269 0.0 0.0 0.00 0.00 0.00 96 1005.9
20260509110008 50 314 0.0 0.0 0.00 0.00 0.00 96 1005.7
20260509104541 50 253 0.0 0.0 0.00 0.00 0.00 96 1005.5
20260509103008 50 307 0.0 0.0 0.00 0.00 0.00 96 1005.6
20260509101540 50 19 0.0 0.0 0.00 0.00 0.00 96 1005.5
20260509100007 50 101 0.0 0.0 0.00 0.00 0.00 96 1005.7
20260509094536 50 257 0.0 0.0 0.00 0.00 0.00 96 1005.9
20260509093006 50 266 0.0 0.0 0.00 0.00 0.00 96 1006.0
20260509091537 50 238 0.0 0.0 0.00 0.00 0.00 96 1006.0
20260509090105 50 229 0.0 0.0 0.00 0.00 0.00 96 1006.2
20260509084531 50 241 0.0 0.0 0.00 0.00 0.00 96 1006.1
20260509083102 50 257 0.0 0.0 0.00 0.00 0.00 96 1006.1
20260509081524 50 225 0.0 0.0 0.00 0.00 0.00 96 1006.0
20260509080054 49 288 0.0 0.0 0.00 0.00 0.00 96 1006.0
20260509074520 49 101 0.0 0.0 0.00 0.00 0.00 96 1006.1
20260509073048 49 271 0.0 0.0 0.00 0.00 0.00 96 1006.1
20260509071516 48 255 0.0 0.0 0.00 0.00 0.00 96 1006.3
20260509070046 48 255 0.0 0.0 0.00 0.00 0.00 96 1006.5
20260509064511 48 255 0.0 0.0 0.00 0.00 0.00 96 1006.7
20260509063042 48 255 0.0 0.0 0.00 0.00 0.00 96 1006.8
20260509061508 48 255 0.0 0.0 0.00 0.00 0.00 95 1006.9
20260509060038 49 255 0.0 0.0 0.00 0.00 0.00 95 1007.0
20260509054609 49 255 0.0 0.0 0.00 0.00 0.00 95 1007.1
20260509053022 49 255 0.0 0.0 0.00 0.00 0.00 95 1007.2
20260509051555 49 255 0.0 0.0 0.00 0.00 0.00 95 1007.2
20260509050039 49 212 0.0 0.0 0.00 0.00 0.00 95 1007.4
20260509044548 49 212 0.0 0.0 0.00 0.00 0.00 95 1007.4
20260509043015 49 212 0.0 0.0 0.00 0.00 0.00 95 1007.5
20260509041545 50 212 0.0 0.0 0.00 0.00 0.00 94 1007.5
20260509040008 50 212 0.0 0.0 0.00 0.00 0.00 94 1007.6
20260509034536 50 212 0.0 0.0 0.00 0.00 0.00 94 1007.7
20260509033004 50 212 0.0 0.0 0.00 0.00 0.00 94 1007.8
20260509031542 50 212 0.0 0.0 0.00 0.00 0.00 93 1008.1
20260509030003 50 212 0.0 0.0 0.00 0.00 0.00 93 1008.1
20260509024537 51 212 0.0 0.0 0.00 0.00 0.00 92 1008.2
20260509023106 51 212 0.0 0.0 0.00 0.00 0.00 92 1008.2
20260509021529 51 212 0.0 0.0 0.00 0.00 0.00 91 1008.2
20260509020002 51 212 0.0 0.0 0.00 0.00 0.00 90 1008.0
20260509014528 52 212 0.0 0.0 0.00 0.00 0.00 88 1008.0
20260509013111 53 212 0.0 0.0 0.00 0.00 0.00 86 1007.9
20260509011527 54 176 0.0 0.0 0.00 0.00 0.00 85 1007.9
20260509010055 55 253 0.0 0.0 0.00 0.00 0.00 84 1007.8
20260509004530 55 248 0.0 0.0 0.00 0.00 0.00 81 1007.6
20260509003054 55 248 0.0 0.0 0.00 0.00 0.00 79 1007.6
20260509001521 56 248 0.0 0.0 0.00 0.00 0.00 77 1007.5
20260508234516 58 86 0.0 0.0 0.00 0.00 0.00 73 1007.4
20260508233046 58 72 0.0 0.0 0.00 0.00 0.00 72 1007.5
20260508231512 58 206 0.0 0.0 0.00 0.00 0.00 71 1007.7
20260508230041 59 67 0.0 0.0 0.00 0.00 0.00 70 1007.7
20260508224508 59 201 0.0 0.0 0.00 0.00 0.00 69 1007.8
20260508223038 60 240 0.0 0.0 0.00 0.00 0.00 66 1007.8
20260508221503 60 298 0.0 0.0 0.00 0.00 0.00 64 1007.7
20260508220038 60 269 0.0 0.0 0.00 0.00 0.00 63 1007.8
20260508214502 60 279 0.0 0.0 0.00 0.00 0.00 65 1007.8
20260508213044 60 141 0.0 0.0 0.00 0.00 0.00 63 1007.9
20260508211501 61 219 0.0 0.0 0.00 0.00 0.00 61 1008.0
20260508210034 61 321 0.0 0.0 0.00 0.00 0.00 62 1008.0
20260508204619 63 262 0.0 0.0 0.00 0.00 0.00 61 1008.1
20260508203029 63 340 0.0 0.0 0.00 0.00 0.00 60 1008.3
20260508201606 63 245 0.0 0.0 0.00 0.00 0.00 60 1008.5
20260508200014 62 22 0.0 0.0 0.00 0.00 0.00 64 1008.8
20260508194538 63 160 0.0 3.0 0.00 0.00 0.00 61 1009.0
20260508193103 64 132 0.0 0.0 0.00 0.00 0.00 59 1009.2
20260508191531 64 143 0.0 0.0 0.00 0.00 0.00 57 1009.4
20260508190103 63 162 0.0 0.0 0.00 0.00 0.00 57 1009.5
20260508184521 64 260 0.0 0.0 0.00 0.00 0.00 50 1009.8
20260508183052 63 129 0.0 0.0 0.00 0.00 0.00 56 1010.0
20260508181537 62 265 0.0 0.0 0.00 0.00 0.00 57 1010.1
20260508180050 62 124 0.0 0.0 0.00 0.00 0.00 56 1010.4
20260508174512 63 16 0.0 0.0 0.00 0.00 0.00 50 1010.6
20260508173031 62 164 0.0 0.0 0.00 0.00 0.00 54 1010.8
20260508171604 63 127 0.0 0.0 0.00 0.00 0.00 51 1011.0
20260508170025 61 259 0.0 0.0 0.00 0.00 0.00 53 1011.2
20260508164556 60 256 0.0 0.0 0.00 0.00 0.00 55 1011.4
20260508163016 59 264 0.0 0.0 0.00 0.00 0.00 61 1011.7
20260508161546 59 160 0.0 1.0 0.00 0.00 0.00 59 1011.8
20260508160011 57 246 0.0 0.0 0.00 0.00 0.00 68 1011.7
20260508154539 56 125 0.0 0.0 0.00 0.00 0.00 71 1011.6
20260508153100 56 147 0.0 0.0 0.00 0.00 0.00 75 1011.8
20260508151524 55 236 0.0 0.0 0.00 0.00 0.00 75 1012.0
20260508150049 54 259 0.0 0.0 0.00 0.00 0.00 78 1012.1
20260508144513 53 140 0.0 0.0 0.00 0.00 0.00 79 1012.2
20260508143042 53 251 0.0 0.0 0.00 0.00 0.00 80 1012.4
20260508141510 53 148 0.0 0.0 0.00 0.00 0.00 79 1012.2
20260508140034 52 181 0.0 0.0 0.00 0.00 0.00 81 1012.3
20260508134601 51 74 0.0 0.0 0.00 0.00 0.00 84 1012.2
20260508133026 50 110 0.0 0.0 0.00 0.00 0.00 86 1012.4
20260508131603 49 198 0.0 0.0 0.00 0.00 0.00 88 1012.3
20260508130018 48 137 0.0 0.0 0.00 0.00 0.00 90 1012.4